Volver al catálogo

CZ-6A DEB

ActivoPO
NORAD 60810·DEBRIS·🇨🇳 China

Lanzado Aug 6, 2024 desde Taiyuan Satellite Launch Center

Loading…

Próximos Pases (próximas 24 horas)

TLE

ActualizadoSource: Space-Track

Época: Sep 14, 2026, 12:55 UTC

1 60810U 24140GM  26257.53850344  .00000375  00000-0  21254-3 0  9992
2 60810  89.3681 299.5032 0117271 325.8606  33.5072 14.04913965107191

Sigue CZ-6A DEB en tiempo real con AllMySat

Download on the App Store